This is the latest recevied weather packets stored in our database for station/object KC8ZBC. If no packets are shown the sender has not sent any weather packets the latest 10 day(s).
| Time | Temp. | Humidity | Pressure | Rain* | Wind** | Luminosity | Snow |
|---|---|---|---|---|---|---|---|
| 1777777112 | 3.33° C | 71% | 990.5 hPa | 0 mm | - | 0 W/m² | - |
| 1777776810 | 3.33° C | 71% | 990.4 hPa | 0 mm | - | 0 W/m² | - |
| 1777776507 | 3.33° C | 69% | 990.5 hPa | 0 mm | - | 0 W/m² | - |
| 1777776204 | 3.89° C | 68% | 990.5 hPa | 0 mm | - | 0 W/m² | - |
| 1777775900 | 3.89° C | 67% | 990.6 hPa | 0 mm | - | 0 W/m² | - |
| 1777775598 | 3.89° C | 66% | 990.7 hPa | 0 mm | - | 0 W/m² | - |
| 1777775295 | 3.89° C | 66% | 990.8 hPa | 0 mm | - | 0 W/m² | - |
| 1777774994 | 3.89° C | 67% | 990.7 hPa | 0 mm | - | 0 W/m² | - |
| 1777774691 | 3.89° C | 67% | 990.7 hPa | 0 mm | - | 0 W/m² | - |
| 1777774387 | 3.89° C | 66% | 990.6 hPa | 0 mm | - | 0 W/m² | - |
| 1777774085 | 3.89° C | 66% | 990.8 hPa | 0 mm | - | 0 W/m² | - |
| 1777773783 | 3.89° C | 69% | 990.6 hPa | 0 mm | - | 0 W/m² | - |
| 1777773478 | 3.89° C | 70% | 990.6 hPa | 0 mm | - | 0 W/m² | - |
| 1777773176 | 3.89° C | 67% | 990.6 hPa | 0 mm | - | 0 W/m² | - |
| 1777772871 | 3.89° C | 67% | 990.7 hPa | 0 mm | - | 0 W/m² | - |
| 1777772569 | 3.89° C | 70% | 990.8 hPa | 0 mm | - | 0 W/m² | - |
| 1777772266 | 3.89° C | 67% | 990.6 hPa | 0 mm | - | 0 W/m² | - |
| 1777771964 | 3.89° C | 70% | 990.6 hPa | 0 mm | - | 0 W/m² | - |
| 1777771661 | 3.89° C | 68% | 990.4 hPa | 0 mm | - | 0 W/m² | - |
| 1777771358 | 3.89° C | 69% | 990.5 hPa | 0 mm | - | 0 W/m² | - |
| 1777771055 | 3.89° C | 70% | 990.4 hPa | 0 mm | - | 0 W/m² | - |
| 1777770753 | 4.44° C | 69% | 990.6 hPa | 0 mm | - | 0 W/m² | - |
| 1777770448 | 4.44° C | 67% | 990.5 hPa | 0 mm | - | 0 W/m² | - |
| 1777770145 | 4.44° C | 68% | 990.3 hPa | 0 mm | - | 0 W/m² | - |
| 1777769843 | 5° C | 64% | 990.4 hPa | 0 mm | - | 0 W/m² | - |
* Rain latest hour (hover to see other rain measurements)
** Current wind speed in m/s (hover to see current wind gust speed)